Location: D�rnast
(49.6426°N, 11.9755°E)
Time: 05:39:05
(UTC+00:00)

BlueWalker 3 - Pass Details

Date: 07 December 2022
Orbit: 499 x 517 km, 53.2° (Epoch: 28 January)

Event Time Altitude Azimuth Distance (km) Brightness Sun altitude
Rises 16:01:52 0° 286° (WNW) 2,636 6.4 -7.7°
Reaches altitude 10° 16:04:07 10° 291° (WNW) 1,745 5.3 -8.1°
Maximum altitude 16:08:00 54° 10° (N) 625 2.2 -8.6°
Enters shadow 16:11:48 10° 89° (E) 1,713 4.1 -9.2°
